Terminal Aerodrome Forecast
Issued by NWS Quad Cities IA IL

Home | Current Version | Previous Version | Graphics & Text | Print | Product List | Glossary On
Versions: 1 2 3 4 5 6 7 8 9 10 11 12 13 14 15 16 17 18 19 20 21 22 23 24 25 26 27 28 29 30 31 32 33 34 35 36 37
928
FTUS43 KDVN 020611 AAA
TAFMLI
TAF AMD
KMLI 020611Z 0206/0306 04006KT 6SM BR BKN010 OVC035
     FM020800 03005KT 6SM BR OVC025
     FM021500 05008KT P6SM SCT030 OVC050
     FM022100 04007KT P6SM VCSH BKN040
     FM030000 04003KT P6SM SCT050=

USA.gov is the U.S. government's official web portal to all federal, state and local government web resources and services.